Location: Recife
(8.0585°S, 34.8848°W)
Time: 12:25:25
(UTC-03:00)

Vanguard 1 Rocket - Pass Details

Date: 19 April 2026
Orbit: 655 x 4212 km, 34.3° (Epoch: 12 May)

Event Time Altitude Azimuth Distance (km) Brightness Sun altitude
Rises 04:11:36 0° 321° (NW) 6,037 11.3 -17.9°
Reaches altitude 10° 04:16:52 10° 329° (NNW) 4,384 10.7 -16.6°
Maximum altitude 04:25:53 32° 27° (NNE) 2,030 9.5 -14.4°
Drops below altitude 10° 04:31:21 10° 90° (E) 2,616 11.2 -13.1°
Sets 04:33:39 0° 101° (E) 3,332 11.7 -12.5°
